Find Starlink 33882

NORAD ID: 63788 Int'l Des: 2025-091 Owner: SPXS Country: US Constellation: starlink operational
LEOCIRCULAR

当前视图

正在加载3D地球...

About Starlink 33882

Starlink 33882 (NORAD 63788) is a starlink constellation satellite (v2 mini) launched May 2, 2025 by SPXS of US. It operates in LEO, CIRCULAR orbit with a mass of 575.00 kg.

即将过境

Passes for default location (London). Set your location on the main map for personalized predictions.

高度历史

Loading altitude history...

两行轨道根数

1 63788U 25091P 26265.38030987 .00013977 00000-0 51603-3 0 9993
2 63788 42.9879 21.6858 0005629 147.1767 212.9435 15.27598297 78970
Epoch: Sep 22, 2026 • Age: 11 hours

当前状态

高度 494.7 km
远地点 / 近地点 N/A
速度 7.62 km/s
星下点 -29.96°S, 40.88°E
发射日期 May 2, 2025
运行时间 1.3 years
类型 internet

技术详情

分类 Payload
质量 575.00 kg
干质量 530.00 kg
长度 0.30 m
跨度 29.00 m
形状 ? Box + pan
制造商 SPXS
平台类型 Starlink V2MO
阶段状态 In Orbit
所有者/国家 SPXS/US

Most Searched